Location: Pensacola
(30.4142°N, 87.2155°W)
Time: 15:08:44
(UTC-06:00)

Cosmos 2143 Rocket - Visible Passes

Search period start: 02 March 2024 00:00
Search period end: 12 March 2024 01:00
Orbit: 1414 x 1475 km, 82.6° (Epoch: 02 March)

Date Brightness Start Highest point End Pass type
(mag) Time Alt. Az. Time Alt. Az. Time Alt. Az.
02 Mar 6.1 04:21:59 10° SSE 04:30:07 52° E 04:38:11 10° NNE visible
03 Mar 7.5 03:22:26 10° SE 03:28:07 20° E 03:33:45 10° NE visible
03 Mar 5.3 05:14:35 10° SSW 05:22:59 64° W 05:31:20 10° N visible
04 Mar 5.9 04:12:17 10° SSE 04:20:29 55° E 04:28:36 10° NNE visible
05 Mar 7.3 03:12:32 10° SE 03:18:27 21° E 03:24:19 10° NE visible
05 Mar 5.3 05:05:03 10° SSW 05:13:23 61° W 05:21:41 10° N visible
06 Mar 5.8 04:02:37 10° SSE 04:10:51 58° E 04:19:01 10° NNE visible
07 Mar 7.2 03:02:40 10° SE 03:08:48 23° E 03:14:52 10° NE visible
07 Mar 5.3 04:55:30 10° SSW 05:03:47 58° W 05:12:02 10° N visible
08 Mar 5.7 03:52:56 10° S 04:01:13 61° E 04:09:26 10° NNE visible
09 Mar 7.1 02:52:49 10° SE 02:59:08 24° E 03:05:24 10° NE visible
09 Mar 5.3 04:45:57 10° SSW 04:54:10 55° W 05:02:23 10° N visible
10 Mar 5.6 04:43:16 10° S 04:51:35 64° E 04:59:51 10° NNE visible
10 Mar 6.3 06:41:50 10° WSW 06:47:44 21° WNW 06:53:38 10° NNW visible
11 Mar 7.0 03:42:58 10° SE 03:49:28 25° E 03:55:55 10° NE visible
11 Mar 5.4 05:36:25 10° SSW 05:44:34 52° W 05:52:43 10° N visible
